Regional Weather Roundup
Issued by NWS Lake Charles, LA

Home | Current Version | Previous Version | Text Only | Print | Product List | Glossary On
Versions: 1 2 3 4 5 6 7 8 9 10 11 12 13 14 15 16 17 18 19 20 21 22 23 24 25 26 27 28 29 30 31 32 33 34 35 36 37 38 39 40 41 42 43 44 45 46 47 48 49 50
000
ASUS44 KLCH 230510
RWRLCH
REGIONAL WEATHER ROUNDUP
NATIONAL WEATHER SERVICE LAKE CHARLES LA
1200 AM CDT SUN APR 23 2017

Note: "fair" indicates few or no clouds below 12,000 feet with no
significant weather and/or obstructions to visibility.


ACROSS SOUTHEAST TEXAS

CITY           SKY/WX    TMP DP  RH WIND       PRES   REMARKS
BEAUMONT       CLOUDY    61  50  67 N12G23    30.02S
BEAUMONT CITY  CLOUDY    60  50  67 MISG      30.05S
ORANGE         CLOUDY    61  52  73 N7        30.04S
JASPER           N/A     60  51  73 NW10G21   30.06S
$$

ACROSS CENTRAL LOUISIANA

CITY           SKY/WX    TMP DP  RH WIND       PRES   REMARKS
LEESVILLE      CLOUDY    57  50  77 N15G21    30.01S HAZE
FULLERTON      CLOUDY    58  50  75 VRB5      29.99S
ALEXANDRIA INT CLOUDY    58  51  78 NW10G20   29.99S
ESLER FIELD    CLOUDY    59  53  80 VRB6G16   30.00R
DERIDDER       CLOUDY    58  50  74 N13G18    30.04S
OAKDALE        PTCLDY    58  53  81 N7        30.00F
OPELOUSAS      MOCLDY    60  53  77 N10       29.99S
$$

ACROSS SOUTHWEST AND SOUTH CENTRAL LOUISIANA

CITY           SKY/WX    TMP DP  RH WIND       PRES   REMARKS
SULPHUR        CLOUDY    61  52  71 N12G20    30.02R
LAKE CHARLES   MOCLDY    61  52  72 N10       30.01R
CHENNAULT INT  CLOUDY    60  53  79 N9        30.01S
CAMERON PHI    CLOUDY    63  54  72 N14G24    30.00R
DEQUINCY       CLOUDY    58  51  76 NW8       30.03R
JENNINGS       CLOUDY    60  54  78 N14       30.00R
LAFAYETTE      MOCLDY    66  55  67 N15       29.97S
NEW IBERIA     CLOUDY    64  55  72 NW14      29.97S
ABBEVILLE      CLOUDY    61  59  94 N12       29.98S
PATTERSON      LGT RAIN  67  64  90 N8        29.95R
SALT POINT       N/A     66  63  90 N8        29.93R
$$

SELECTED SITES ACROSS THE REGION

CITY           SKY/WX    TMP DP  RH WIND       PRES   REMARKS
HOUSTON BUSH   CLOUDY    61  48  62 N18G28    30.08R
HOUSTON HOBBY  MOCLDY    61  47  59 N23G31    30.06S
GALVESTON      CLOUDY    65  55  70 N24       30.04R
COLLEGE STAT   MOCLDY    57  46  66 N12       30.12S
CONROE         CLOUDY    58  48  69 N9        30.09R
HUNTSVILLE     MOCLDY    57  45  64 N8        30.10S
LUFKIN         CLOUDY    55  44  66 NW8G16    30.08R
SHREVEPORT     CLOUDY    54  45  71 NW16G22   30.05R
MONROE         CLOUDY    58  55  90 N15       29.99R
NATCHEZ MS     LGT RAIN  59  58  96 N7        29.97S FOG
BATON ROUGE    CLOUDY    67  63  87 N9        29.94R
N.O. INTL ARPT CLOUDY    72  69  90 N10       29.89R
SLIDELL        LGT RAIN  70  68  93 N15G21    29.89S
$$

MARINE REPORTS

STATION/POSITION TIME  SKY/WX   TEMP    WIND        PRES    VSBY
                                AIR SEA DIR/SP/G
                 (UTC)          (F)     (DEG/KT/KT) (MB)    (MI)
BUOY 30 S HIGH I 0450            64 77  340/ 23/ 29 1015.9R
WVE H/P(F/S)=  4/ 4

SEA RIM ST PARK  0500            60     350/ 19/ 23 1017.1R
PORT ARTHUR      0448            61 77  350/ 12/ 18 1016.9R
SABINE PASS N    0448            63 80  350/ 13/ 21 1018.1R
TEXAS POINT      NOT AVBL
CALCASIEU PASS   0448            62 78   10/ 17/ 22   N/A
LK CHARLES BEACH 0448            61 77              1016.7R
MARSH ISLAND     0400            70                   N/A
FRESH WATER LOCK 0448            63 80  320/ 18/ 24 1014.5R
AMERADA PASS     0448            69 72  310/ 10/ 18 1013.3R
$$



USA.gov is the U.S. government's official web portal to all federal, state and local government web resources and services.